Zurück zum Katalog

SL-8 DEB

AktivPO
NORAD 29284·DEBRIS·🇷🇺 Russia

Gestartet Dec 17, 1981 von Plesetsk Cosmodrome

Loading…

Nächste Überflüge (nächste 24 Stunden)

TLE

AktuellSource: Space-Track

Epoche: Sep 14, 2026, 08:04 UTC

1 29284U 81120N   26257.33621734 -.00000052  00000-0 -73498-3 0  9991
2 29284  82.9540  89.2242 0035732 346.8790 188.5334 12.02519464557237

Verfolge SL-8 DEB in Echtzeit mit AllMySat

Download on the App Store